OCN1MK EDDF-LSZH

Flight info

Callsign OCN1MK
Flight time 0h 35m
Altitude 23000
Route ANEKI2L/18 ANEKI Y163 NEKLO Y171 INKAM T725 LAMGO T721 RILAX
Aircraft A320/M-SDE3FGHIRWY/LB1

Departure

Time 2026-05-07 18:12
Airport Frankfurt Main Airport (EDDF)

Arrival

Time 2026-05-07 18:47
Airport Zürich Airport (LSZH)
Time Latitude Longitude Altitude Speed Heading
2026-05-07 17:59 50.03596 8.53729 341 ft 0 kts 159°
2026-05-07 18:08 50.03581 8.53739 337 ft 6 kts 155°
2026-05-07 18:08 50.03531 8.53737 340 ft 12 kts 214°
2026-05-07 18:08 50.03492 8.53633 339 ft 11 kts 246°
2026-05-07 18:08 50.03460 8.53541 337 ft 9 kts 226°
2026-05-07 18:09 50.03435 8.53459 335 ft 8 kts 263°
2026-05-07 18:09 50.03424 8.53355 338 ft 11 kts 255°
2026-05-07 18:09 50.03401 8.53247 335 ft 10 kts 251°
2026-05-07 18:09 50.03366 8.53134 333 ft 13 kts 245°
2026-05-07 18:10 50.03329 8.52957 332 ft 19 kts 253°
2026-05-07 18:10 50.03289 8.52748 331 ft 21 kts 254°
2026-05-07 18:10 50.03231 8.52597 334 ft 8 kts 190°
2026-05-07 18:10 50.03225 8.52598 334 ft 0 kts 173°
2026-05-07 18:11 50.02855 8.52600 335 ft 88 kts 179°
2026-05-07 18:11 50.02027 8.52608 332 ft 152 kts 179°
2026-05-07 18:12 50.00795 8.52614 598 ft 191 kts 179°
2026-05-07 18:12 49.99458 8.52650 1558 ft 190 kts 177°
2026-05-07 18:12 49.98087 8.52733 2309 ft 206 kts 177°
2026-05-07 18:12 49.96572 8.52844 2740 ft 227 kts 177°
2026-05-07 18:13 49.94969 8.52963 3484 ft 233 kts 177°
2026-05-07 18:13 49.93317 8.53083 3936 ft 239 kts 178°
2026-05-07 18:13 49.91631 8.53208 4072 ft 255 kts 176°
2026-05-07 18:13 49.89809 8.53346 4160 ft 278 kts 178°
2026-05-07 18:14 49.87794 8.53490 4578 ft 302 kts 178°
2026-05-07 18:14 49.85602 8.53642 4958 ft 327 kts 178°
2026-05-07 18:14 49.83258 8.53801 5285 ft 348 kts 178°
2026-05-07 18:14 49.80799 8.53970 5969 ft 356 kts 178°
2026-05-07 18:15 49.78308 8.54112 6756 ft 359 kts 181°
2026-05-07 18:15 49.75796 8.53970 7506 ft 362 kts 184°
2026-05-07 18:15 49.73269 8.53680 8266 ft 366 kts 186°
2026-05-07 18:15 49.70727 8.53310 9114 ft 366 kts 187°
2026-05-07 18:16 49.68219 8.52925 10326 ft 357 kts 187°
2026-05-07 18:16 49.65762 8.52550 11131 ft 358 kts 187°
2026-05-07 18:16 49.63268 8.52183 11867 ft 361 kts 186°
2026-05-07 18:16 49.60753 8.51841 12588 ft 365 kts 184°
2026-05-07 18:17 49.58191 8.51818 13293 ft 369 kts 180°
2026-05-07 18:17 49.55611 8.51899 13987 ft 373 kts 179°
2026-05-07 18:17 49.52998 8.52028 14604 ft 377 kts 179°
2026-05-07 18:17 49.50371 8.52174 15221 ft 380 kts 179°
2026-05-07 18:18 49.47717 8.52321 15834 ft 383 kts 179°
2026-05-07 18:18 49.45036 8.52462 16434 ft 386 kts 179°
2026-05-07 18:18 49.42338 8.52595 17030 ft 389 kts 180°
2026-05-07 18:18 49.39654 8.52719 17607 ft 392 kts 180°
2026-05-07 18:19 49.36881 8.52843 18191 ft 396 kts 180°
2026-05-07 18:19 49.34151 8.52960 18692 ft 399 kts 180°
2026-05-07 18:19 49.31359 8.53079 19189 ft 402 kts 180°
2026-05-07 18:19 49.28551 8.53204 19677 ft 404 kts 180°
2026-05-07 18:20 49.25740 8.53329 20160 ft 407 kts 180°
2026-05-07 18:20 49.22895 8.53454 20646 ft 410 kts 180°
2026-05-07 18:20 49.20028 8.53576 21107 ft 413 kts 180°
2026-05-07 18:20 49.17147 8.53699 21577 ft 415 kts 180°
2026-05-07 18:21 49.14250 8.53829 22038 ft 418 kts 180°
2026-05-07 18:21 49.11327 8.53963 22498 ft 421 kts 180°
2026-05-07 18:21 49.08392 8.54097 22929 ft 423 kts 180°
2026-05-07 18:21 49.06446 8.54186 23041 ft 424 kts 180°
2026-05-07 18:22 49.03498 8.54320 23061 ft 424 kts 180°
2026-05-07 18:22 49.01499 8.54410 23060 ft 423 kts 180°
2026-05-07 18:22 48.97600 8.54585 23058 ft 423 kts 180°
2026-05-07 18:22 48.94651 8.54713 23061 ft 423 kts 181°
2026-05-07 18:23 48.91707 8.54839 23063 ft 423 kts 181°
2026-05-07 18:23 48.88763 8.54966 23065 ft 423 kts 181°
2026-05-07 18:23 48.85816 8.55095 23063 ft 423 kts 181°
2026-05-07 18:23 48.82873 8.55225 23065 ft 423 kts 181°
2026-05-07 18:24 48.79935 8.55357 23063 ft 422 kts 181°
2026-05-07 18:24 48.77035 8.55491 23064 ft 422 kts 181°
2026-05-07 18:24 48.74096 8.55622 23063 ft 422 kts 181°
2026-05-07 18:24 48.71164 8.55747 23060 ft 422 kts 181°
2026-05-07 18:25 48.68226 8.55871 23060 ft 422 kts 181°
2026-05-07 18:25 48.65289 8.55993 23060 ft 422 kts 181°
2026-05-07 18:25 48.62347 8.56123 23062 ft 422 kts 180°
2026-05-07 18:25 48.59435 8.56257 22883 ft 416 kts 181°
2026-05-07 18:26 48.56561 8.56388 22604 ft 411 kts 181°
2026-05-07 18:26 48.53705 8.56513 22340 ft 408 kts 181°
2026-05-07 18:26 48.50874 8.56636 22068 ft 406 kts 181°
2026-05-07 18:26 48.48048 8.56756 21801 ft 405 kts 181°
2026-05-07 18:27 48.45243 8.56873 21536 ft 403 kts 181°
2026-05-07 18:27 48.42439 8.56989 21275 ft 401 kts 181°
2026-05-07 18:27 48.39655 8.57106 21014 ft 400 kts 181°
2026-05-07 18:27 48.36875 8.57224 20756 ft 398 kts 181°
2026-05-07 18:28 48.34103 8.57341 20507 ft 397 kts 181°
2026-05-07 18:28 48.31383 8.57458 20256 ft 395 kts 181°
2026-05-07 18:28 48.28637 8.57575 20004 ft 394 kts 181°
2026-05-07 18:28 48.25868 8.57697 19750 ft 392 kts 180°
2026-05-07 18:29 48.23150 8.57817 19505 ft 391 kts 180°
2026-05-07 18:29 48.20460 8.57933 19260 ft 389 kts 181°
2026-05-07 18:29 48.17754 8.57984 18674 ft 388 kts 185°
2026-05-07 18:29 48.15111 8.57537 18023 ft 379 kts 193°
2026-05-07 18:30 48.12534 8.56749 17611 ft 377 kts 193°
2026-05-07 18:30 48.09970 8.55983 17216 ft 375 kts 193°
2026-05-07 18:30 48.07414 8.55234 16886 ft 373 kts 193°
2026-05-07 18:30 48.04878 8.54491 16404 ft 371 kts 193°
2026-05-07 18:31 48.02354 8.53746 15923 ft 368 kts 193°
2026-05-07 18:31 47.99849 8.53028 15444 ft 366 kts 190°
2026-05-07 18:31 47.97306 8.52818 14972 ft 366 kts 179°
2026-05-07 18:31 47.94784 8.53339 14513 ft 366 kts 168°
2026-05-07 18:32 47.92373 8.54567 14052 ft 367 kts 158°
2026-05-07 18:32 47.90186 8.56425 13574 ft 368 kts 147°
2026-05-07 18:32 47.89748 8.56902 13464 ft 368 kts 144°
2026-05-07 18:32 47.87883 8.59188 12985 ft 368 kts 142°
2026-05-07 18:33 47.85918 8.61597 12486 ft 365 kts 143°
2026-05-07 18:33 47.83957 8.63975 11999 ft 361 kts 143°
2026-05-07 18:33 47.82010 8.66326 11511 ft 359 kts 143°
2026-05-07 18:33 47.80081 8.68658 11035 ft 356 kts 143°
2026-05-07 18:34 47.78165 8.70969 10564 ft 353 kts 143°
2026-05-07 18:34 47.76263 8.73261 10189 ft 350 kts 143°
2026-05-07 18:34 47.74384 8.75527 9962 ft 344 kts 143°
2026-05-07 18:34 47.72559 8.77728 9828 ft 331 kts 143°
2026-05-07 18:35 47.70808 8.79843 9684 ft 318 kts 143°
2026-05-07 18:35 47.69142 8.81854 9557 ft 307 kts 143°
2026-05-07 18:35 47.67496 8.83838 9420 ft 296 kts 143°
2026-05-07 18:35 47.65909 8.85746 9282 ft 291 kts 143°
2026-05-07 18:36 47.64339 8.87632 9153 ft 290 kts 143°
2026-05-07 18:36 47.62862 8.89668 9009 ft 290 kts 135°
2026-05-07 18:36 47.61617 8.91988 8888 ft 291 kts 126°
2026-05-07 18:36 47.60490 8.94473 8754 ft 289 kts 133°
2026-05-07 18:37 47.58984 8.96393 8624 ft 285 kts 151°
2026-05-07 18:37 47.57190 8.97570 8494 ft 281 kts 166°
2026-05-07 18:37 47.55250 8.98012 8361 ft 278 kts 181°
2026-05-07 18:37 47.53358 8.97722 8232 ft 275 kts 195°
2026-05-07 18:38 47.51577 8.96736 8102 ft 273 kts 210°
2026-05-07 18:38 47.50021 8.95136 7974 ft 273 kts 219°
2026-05-07 18:38 47.48535 8.93392 7841 ft 273 kts 219°
2026-05-07 18:38 47.47042 8.91649 7721 ft 273 kts 219°
2026-05-07 18:39 47.45553 8.89916 7588 ft 273 kts 219°
2026-05-07 18:39 47.44065 8.88185 7460 ft 272 kts 219°
2026-05-07 18:39 47.42576 8.86452 7332 ft 273 kts 219°
2026-05-07 18:39 47.41084 8.84718 7204 ft 273 kts 219°
2026-05-07 18:40 47.39593 8.82988 7079 ft 273 kts 218°
2026-05-07 18:40 47.38116 8.81274 6959 ft 273 kts 218°
2026-05-07 18:40 47.36623 8.79546 6529 ft 272 kts 218°
2026-05-07 18:40 47.35136 8.77828 5918 ft 269 kts 218°
2026-05-07 18:41 47.33673 8.76134 5306 ft 266 kts 218°
2026-05-07 18:41 47.32257 8.74498 5042 ft 249 kts 218°
2026-05-07 18:41 47.30944 8.72981 5004 ft 232 kts 218°
2026-05-07 18:41 47.29783 8.71508 5018 ft 208 kts 232°
2026-05-07 18:42 47.29208 8.69745 5042 ft 178 kts 258°
2026-05-07 18:42 47.29210 8.68037 5007 ft 160 kts 283°
2026-05-07 18:42 47.29633 8.66566 4953 ft 154 kts 304°
2026-05-07 18:42 47.30373 8.65457 4832 ft 151 kts 326°
2026-05-07 18:43 47.31302 8.64758 4643 ft 150 kts 335°
2026-05-07 18:43 47.32242 8.64116 4424 ft 148 kts 335°
2026-05-07 18:43 47.33175 8.63479 4215 ft 147 kts 335°
2026-05-07 18:43 47.34103 8.62843 3997 ft 146 kts 335°
2026-05-07 18:44 47.35021 8.62214 3789 ft 145 kts 335°
2026-05-07 18:44 47.35934 8.61589 3572 ft 145 kts 335°
2026-05-07 18:44 47.36844 8.60965 3364 ft 144 kts 335°
2026-05-07 18:44 47.37751 8.60343 3155 ft 143 kts 335°
2026-05-07 18:45 47.38644 8.59731 2941 ft 143 kts 335°
2026-05-07 18:45 47.39556 8.59105 2725 ft 142 kts 335°
2026-05-07 18:45 47.40416 8.58515 2516 ft 142 kts 335°
2026-05-07 18:45 47.41294 8.57906 2310 ft 142 kts 335°
2026-05-07 18:46 47.42185 8.57279 2082 ft 142 kts 335°
2026-05-07 18:46 47.43076 8.56669 1792 ft 140 kts 335°
2026-05-07 18:46 47.43955 8.56071 1594 ft 140 kts 335°
2026-05-07 18:46 47.44828 8.55476 1443 ft 138 kts 335°
2026-05-07 18:47 47.45658 8.54906 1394 ft 115 kts 334°
2026-05-07 18:47 47.46220 8.54517 1385 ft 65 kts 336°
2026-05-07 18:47 47.46479 8.54348 1381 ft 24 kts 335°
2026-05-07 18:47 47.46676 8.54209 1378 ft 40 kts 334°
2026-05-07 18:48 47.46913 8.54045 1383 ft 32 kts 336°
2026-05-07 18:48 47.47010 8.54108 1383 ft 13 kts 66°
2026-05-07 18:48 47.47008 8.54214 1382 ft 10 kts 111°
2026-05-07 18:48 47.46977 8.54288 1381 ft 8 kts 129°
2026-05-07 18:49 47.46937 8.54325 1383 ft 6 kts 152°
2026-05-07 18:49 47.46899 8.54355 1382 ft 6 kts 152°
2026-05-07 18:49 47.46856 8.54390 1379 ft 8 kts 144°
2026-05-07 18:49 47.46793 8.54435 1383 ft 15 kts 173°
2026-05-07 18:50 47.46703 8.54475 1384 ft 12 kts 158°
2026-05-07 18:50 47.46637 8.54515 1384 ft 9 kts 157°
2026-05-07 18:50 47.46569 8.54558 1386 ft 12 kts 155°
2026-05-07 18:50 47.46489 8.54614 1385 ft 15 kts 154°
2026-05-07 18:51 47.46399 8.54683 1385 ft 14 kts 151°
2026-05-07 18:51 47.46317 8.54751 1385 ft 13 kts 153°
2026-05-07 18:51 47.46228 8.54799 1386 ft 13 kts 158°
2026-05-07 18:51 47.46151 8.54853 1386 ft 11 kts 155°
2026-05-07 18:52 47.46045 8.54926 1387 ft 27 kts 156°
2026-05-07 18:52 47.45875 8.55041 1404 ft 27 kts 154°
2026-05-07 18:52 47.45707 8.55163 1395 ft 27 kts 155°
2026-05-07 18:52 47.45561 8.55269 1406 ft 22 kts 152°
2026-05-07 18:53 47.45422 8.55357 1404 ft 18 kts 155°
2026-05-07 18:53 47.45327 8.55441 1404 ft 14 kts 140°
2026-05-07 18:53 47.45286 8.55540 1409 ft 9 kts 114°
2026-05-07 18:53 47.45275 8.55604 1406 ft 5 kts 97°
2026-05-07 18:54 47.45270 8.55655 1408 ft 5 kts 97°
2026-05-07 18:54 47.45264 8.55721 1407 ft 7 kts 97°
2026-05-07 18:54 47.45260 8.55786 1407 ft 6 kts 95°
2026-05-07 18:54 47.45256 8.55847 1411 ft 10 kts 95°
2026-05-07 18:55 47.45254 8.55927 1409 ft 5 kts 77°
2026-05-07 18:55 47.45276 8.55935 1407 ft 3 kts
2026-05-07 18:55 47.45291 8.55937 1411 ft 1 kts
2026-05-07 18:55 47.45308 8.55939 1413 ft 4 kts
2026-05-07 18:56 47.45330 8.55943 1412 ft 1 kts
2026-05-07 18:56 47.45333 8.55943 1411 ft 0 kts